FW9014 Weather Reports


Display with metric or nautical units.
time (UTC)temp
F
wind
direction
speed
MPH
gust
MPH
rain 1hr
in
rain 24hr
in
rain mn
in
humidity
%
barometer
mb
20260906031601 78 177 5.0 8.0 0.01 0.03 0.03 93 1012.7
20260906030217 78 146 2.0 5.0 0.00 0.02 0.02 94 1012.7
20260906025052 78 182 7.0 11.0 0.00 0.02 0.02 94 1012.5
20260906023334 77 168 6.0 9.0 0.00 0.02 0.02 95 1012.3
20260906021557 76 0 0.0 3.0 0.00 0.02 0.02 95 1012.3
20260906014601 76 0 2.0 7.0 0.00 0.02 0.02 94 1012.2
20260906013057 76 93 4.0 8.0 0.00 0.02 0.02 94 1012.0
20260906011600 76 102 4.0 8.0 0.00 0.02 0.02 94 1012.0
20260906010058 76 103 3.0 7.0 0.00 0.02 0.02 93 1012.1
20260906004554 76 84 1.0 6.0 0.00 0.02 0.02 93 1012.4
20260906003058 77 86 1.0 6.0 0.00 0.02 0.02 92 1012.5
20260906001600 77 133 1.0 3.0 0.00 0.02 0.02 91 1012.5
20260906000059 77 124 1.0 6.0 0.00 0.02 0.02 91 1012.5
20260905234550 77 0 3.0 9.0 0.00 0.02 0.02 91 1012.7
20260905233057 77 167 5.0 11.0 0.00 0.02 0.02 91 1012.9
20260905231600 77 163 6.0 10.0 0.00 0.02 0.02 91 1012.8
20260905230100 76 165 5.0 11.0 0.00 0.02 0.02 92 1012.9
20260905224607 76 187 9.0 14.0 0.00 0.02 0.02 93 1013.0
20260905223059 76 159 3.0 7.0 0.00 0.02 0.02 92 1012.8
20260905221605 76 97 4.0 10.0 0.00 0.02 0.02 92 1012.6
20260905220108 77 78 1.0 8.0 0.00 0.02 0.02 90 1012.7
20260905214602 77 74 3.0 10.0 0.00 0.02 0.02 89 1012.7
20260905213100 78 76 4.0 14.0 0.00 0.02 0.02 86 1012.7
20260905211628 79 117 7.0 15.0 0.00 0.02 0.02 82 1012.9
20260905210115 81 55 6.0 20.0 0.00 0.02 0.02 78 1012.9
20260905204606 84 93 4.0 12.0 0.00 0.02 0.02 75 1012.8
20260905203118 89 96 7.0 14.0 0.00 0.02 0.02 66 1013.1
20260905201600 92 191 3.0 6.0 0.00 0.02 0.02 57 1012.3
20260905194556 90 0 0.0 1.0 0.00 0.03 0.02 63 1012.6
20260905193057 89 0 1.0 4.0 0.00 0.03 0.02 64 1012.6
20260905191557 88 286 1.0 4.0 0.00 0.03 0.02 66 1012.7
20260905190057 88 281 2.0 3.0 0.00 0.03 0.02 68 1012.9
20260905184608 88 271 2.0 4.0 0.00 0.03 0.02 67 1013.4
20260905183101 87 275 2.0 6.0 0.00 0.03 0.02 68 1013.4
20260905181610 86 256 4.0 7.0 0.00 0.03 0.02 74 1013.7
20260905180057 86 295 3.0 6.0 0.00 0.03 0.02 77 1013.8
20260905174600 85 288 3.0 6.0 0.00 0.03 0.02 77 1014.0
20260905173100 85 294 4.0 7.0 0.00 0.03 0.02 77 1014.2
20260905171558 84 276 4.0 7.0 0.01 0.03 0.02 80 1014.4
20260905170056 83 0 0.0 0.0 0.01 0.03 0.02 82 1014.7
20260905164558 83 0 0.0 0.0 0.01 0.03 0.02 84 1015.0
20260905163102 83 0 0.0 0.0 0.01 0.03 0.02 86 1015.0
20260905161558 83 0 0.0 0.0 0.00 0.02 0.01 86 1015.0
20260905160136 83 0 0.0 0.0 0.00 0.02 0.01 85 1015.0
20260905154603 83 0 0.0 0.0 0.00 0.02 0.01 86 1015.2
20260905153059 84 0 0.0 0.0 0.00 0.02 0.01 85 1015.2
20260905151602 84 0 0.0 0.0 0.00 0.02 0.01 84 1015.2
20260905150058 84 0 0.0 0.0 0.00 0.02 0.01 84 1015.0
20260905144555 84 0 0.0 0.0 0.00 0.02 0.01 86 1015.0
20260905143058 82 0 0.0 0.0 0.00 0.02 0.01 90 1014.9
20260905141555 81 0 0.0 0.0 0.00 0.02 0.01 92 1014.8
20260905140059 79 0 0.0 0.0 0.00 0.02 0.01 93 1014.9
20260905134604 78 0 0.0 0.0 0.00 0.02 0.01 94 1014.8
20260905133100 78 0 0.0 0.0 0.00 0.02 0.01 94 1014.9
20260905131604 77 0 0.0 0.0 0.00 0.02 0.01 94 1014.9
20260905130056 77 0 0.0 0.0 0.00 0.02 0.01 93 1014.9
20260905124605 77 0 0.0 0.0 0.00 0.02 0.01 93 1014.6
20260905123103 77 0 0.0 0.0 0.00 0.02 0.01 93 1014.3
20260905121601 77 0 0.0 0.0 0.00 0.02 0.01 93 1014.2
20260905120120 77 0 0.0 0.0 0.00 0.02 0.01 93 1014.0
20260905114554 78 0 0.0 0.0 0.00 0.03 0.01 92 1014.0
20260905113101 78 0 0.0 0.0 0.00 0.03 0.01 91 1013.8
20260905111613 79 0 0.0 0.0 0.00 0.03 0.01 90 1013.6
20260905110100 80 0 0.0 0.0 0.00 0.03 0.01 90 1013.6
20260905104554 80 0 0.0 2.0 0.00 0.03 0.01 90 1013.5
20260905103059 80 0 0.0 1.0 0.00 0.03 0.01 89 1013.5
20260905101555 81 298 1.0 4.0 0.00 0.03 0.01 89 1013.5
20260905100059 81 275 3.0 7.0 0.00 0.03 0.01 88 1013.4
20260905094556 81 297 2.0 4.0 0.00 0.03 0.01 89 1013.5
20260905093059 81 257 2.0 4.0 0.00 0.03 0.01 88 1013.3
20260905091618 81 245 2.0 4.0 0.00 0.03 0.01 88 1013.2
20260905090119 81 263 0.0 4.0 0.00 0.03 0.01 88 1013.3
20260905084608 81 243 2.0 5.0 0.00 0.03 0.01 87 1013.1
20260905083057 81 250 3.0 5.0 0.00 0.03 0.01 88 1013.1
20260905081555 81 248 1.0 6.0 0.00 0.03 0.01 88 1013.3
20260905080054 81 241 3.0 7.0 0.00 0.03 0.01 89 1013.4
20260905074600 81 234 6.0 10.0 0.00 0.03 0.01 89 1013.2
20260905073103 81 238 8.0 11.0 0.00 0.03 0.01 88 1013.4
20260905071554 81 224 6.0 9.0 0.00 0.03 0.01 89 1013.6
20260905070114 81 188 5.0 8.0 0.01 0.03 0.01 90 1013.7
20260905064558 81 202 4.0 7.0 0.01 0.03 0.01 89 1013.8
20260905063106 81 202 4.0 9.0 0.01 0.03 0.01 89 1013.9
20260905061624 81 192 6.0 8.0 0.01 0.03 0.01 89 1013.7
20260905060118 81 165 6.0 9.0 0.00 0.02 0.00 89 1013.7
20260905054602 81 179 6.0 10.0 0.00 0.02 0.00 89 1013.7
20260905053108 81 185 6.0 10.0 0.00 0.02 0.00 88 1013.7
20260905051554 82 184 8.0 11.0 0.00 0.02 0.00 88 1013.8
20260905050054 82 180 7.0 11.0 0.00 0.02 0.00 87 1013.7
20260905044601 82 162 5.0 9.0 0.00 0.03 0.02 87 1013.6
20260905043058 82 200 6.0 9.0 0.00 0.03 0.02 87 1013.6
20260905041602 82 196 5.0 7.0 0.00 0.03 0.02 87 1013.6
20260905040054 83 143 2.0 4.0 0.00 0.03 0.02 86 1013.7
20260905034611 83 172 2.0 7.0 0.00 0.03 0.02 86 1013.8
20260905033101 83 184 6.0 8.0 0.00 0.03 0.02 86 1013.9